Home   Weather   Sault Ste. Marie   Past weeks

Flag for Canada Past Weather in Sault Ste. Marie, Ontario, Canada — Yesterday and Last 2 Weeks

Now
55 °F

Clear.


Feels Like: 53 °F
Forecast: 53 / 70 °F
Wind: 9 mph from Northeast

Location: Sault Ste Marie

Current Time: Sep 30, 2016 at 4:32:06 AM

Latest Report: Sep 30, 2016 at 4:00 AM


Visibility: 15 mi

Pressure: 30.40 "Hg

Humidity: 82%

Dew Point: 50 °F

Location of Sault Ste. MarieLocation

Past Weather in Sault Ste. Marie — Graph

°F

Sault Ste. Marie Temperature Yesterday

Maximum temperature yesterday: 72 °F (at 3:00 PM)
Minimum temperature yesterday: 52 °F (at 6:00 AM)
Average temperature yesterday: 60 °F

High & Low Weather Summary for the Past Weeks

 TemperatureHumidityPressure
High75 °F (Sep 19, 12:00 PM)100% (Sep 15, 3:00 AM)30.44 "Hg (Sep 15, 3:00 AM)
Low39 °F (Sep 24, 7:00 AM)34% (Sep 20, 4:00 PM)29.52 "Hg (Sep 27, 9:00 AM)
Average60 °F79%30.03 "Hg
* Reported Sep 15 3:00 AM — Sep 30 3:00 AM, Sault Ste. Marie, Weather by CustomWeather, © 2016

Note: Actual official high and low records may vary slightly from our data, if they occured in-between our weather recording intervals... More about our weather records

Advertising

Sault Ste. Marie Weather History for the Previous 24 Hours

Scroll right to see more
 ConditionsComfort  
Time TempWeatherWind HumidityBarometerVisibility
3:00 AM
Fri, Sep 30
55 °FClear.9 mph77%30.41 "Hg15 mi
2:00 AM54 °FClear.8 mph82%30.43 "Hg15 mi
1:00 AM55 °FClear.9 mph77%30.42 "Hg15 mi
12:00 AM55 °FClear.8 mph77%30.43 "Hg15 mi
11:00 PM
Thu, Sep 29
55 °FClear.7 mph77%30.43 "Hg15 mi
10:00 PM55 °FFog.5 mph77%30.44 "Hg15 mi
9:00 PM59 °FFog.7 mph72%30.43 "Hg15 mi
8:00 PM55 °FFog.5 mph100%30.42 "Hg15 mi
7:00 PM63 °FPassing clouds.No wind83%30.41 "Hg15 mi
6:00 PM66 °FPassing clouds.8 mph73%30.41 "Hg15 mi
5:00 PM68 °FPassing clouds.9 mph69%30.40 "Hg15 mi
4:00 PM72 °FPassing clouds.10 mph57%30.40 "Hg15 mi
3:00 PM72 °FPassing clouds.9 mph41%30.42 "Hg15 mi
2:00 PM70 °FPassing clouds.9 mph46%30.42 "Hg15 mi
1:00 PM70 °FPassing clouds.10 mph46%30.43 "Hg15 mi
12:00 PM66 °FPassing clouds.10 mph56%30.44 "Hg15 mi
11:00 AM63 °FPassing clouds.12 mph64%30.44 "Hg15 mi
10:00 AM59 °FPassing clouds.10 mph72%30.44 "Hg15 mi
9:00 AM55 °FPassing clouds.2 mph82%30.42 "Hg15 mi
8:00 AM54 °FPassing clouds.8 mph82%30.39 "Hg15 mi
7:00 AM52 °FClear.6 mph88%30.37 "Hg15 mi
6:00 AM52 °FClear.5 mph88%30.36 "Hg15 mi
5:00 AM54 °FClear.5 mph82%30.34 "Hg15 mi
4:00 AM54 °FClear.6 mph82%30.33 "Hg15 mi
Weather by CustomWeather, © 2016

See weather overviewHow to use our weather pages